{"data":{"norad_id":62584,"intl_designator":"2025-007K","name":"CENTISPACE-1 S15","alt_names":[],"object_type":"PAYLOAD","status":"ACTIVE","operator":null,"country":"PRC","launch_date":"2025-01-13","launch_site_code":"YSLA","launch_vehicle":null,"mission":null,"orbit_class":"UNKNOWN","rcs_meters":null,"size_class":null,"mass_kg":null,"dimensions":null,"purposes":[],"wikipedia_slug":null,"has_3d_model":false,"image_url":null,"decayed_at":null,"tle_current":{"epoch":"2026-05-25T04:01:55.793568Z","epoch_age_seconds":67381,"freshness":"FRESH","line1":"1 62584U 25007K   26145.16800687 -.00000033  00000+0  10172-3 0  9993","line2":"2 62584  54.9879  13.0587 0014573  37.1491 323.0471 13.80608686 71552","mean_motion":13.80608686,"eccentricity":0.0014573,"inclination_deg":54.9879,"raan_deg":13.0587,"arg_perigee_deg":37.1491,"mean_anomaly_deg":323.0471,"bstar":0.00010172,"rev_number":7155,"period_min":104.30182097232,"perigee_km":951.03220410002,"apogee_km":972.42497634929,"semimajor_km":7339.8655902247,"source":"CELESTRAK","updated_at":"2026-05-25T13:38:03.092265Z"}}}